Regional Weather Roundup
Issued by NWS

Home | Current Version | Previous Version | Text Only | Print | Product List | Glossary On
Versions: 1 2 3 4 5 6 7 8 9 10 11 12 13 14 15 16 17 18 19 20 21 22 23 24 25 26 27 28 29 30 31 32 33 34 35 36 37 38 39 40 41 42 43 44 45 46 47 48 49 50
043
ASUS43 KBIS 250210
RWRND

NORTH DAKOTA REGIONAL WEATHER ROUNDUP
NATIONAL WEATHER SERVICE BISMARCK ND
800 PM CST FRI FEB 24 2017

NOTE: "FAIR" INDICATES FEW OR NO CLOUDS BELOW 12,000 FEET WITH NO
SIGNIFICANT WEATHER AND/OR OBSTRUCTIONS TO VISIBILITY.


NDZ001>003-009>011-017-250300-
NORTHWEST NORTH DAKOTA

CITY           SKY/WX    TMP DP  RH WIND       PRES   REMARKS
WILLISTON      MOCLDY    21  16  81 CALM      30.08F
MINOT          MOCLDY    26  16  65 W6        30.07F WCI  19
$$

NDZ018>021-031>035-040>046-250300-
SOUTHWEST NORTH DAKOTA

CITY           SKY/WX    TMP DP  RH WIND       PRES   REMARKS
BISMARCK       CLOUDY    26  17  68 W3        30.12S
DICKINSON      CLOUDY    20  16  84 S6        30.03F WCI  12
GARRISON         N/A     20  14  77 W5        30.08F WCI  13
HETTINGER ARPT CLOUDY    24  16  71 E6        30.07S WCI  17
$$

NDZ004>008-012>016-024-026-027-054-250300-
NORTHEAST NORTH DAKOTA

CITY           SKY/WX    TMP DP  RH WIND       PRES   REMARKS
GRAND FORKS    CLEAR     17   9  70 N9        30.12S WCI   6
GRND FRKS AFB  CLEAR     14  10  83 N7        30.12F WCI   4
DEVILS LAKE    FAIR      18  14  84 NW3       30.09F
$$

NDZ022-023-025-028>030-036>039-047>053-250300-
SOUTHEAST NORTH DAKOTA

CITY           SKY/WX    TMP DP  RH WIND       PRES   REMARKS
FARGO          CLEAR     19  11  70 N20       30.10R WCI   3
JAMESTOWN      FAIR      20  14  77 NW8       30.09S WCI  10
$$





USA.gov is the U.S. government's official web portal to all federal, state and local government web resources and services.